map of BDB home
BDB - Airport
Location
City:  Bundaberg, Queensland, Australia
ICAO:YBUD
IATA:BDB

Details
Type:Airport (Aerodrome, Airfield)
Latitude:24°54'14"S (-24.903888)
Longitude:152°19'07"E (152.318611)
Datum:WGS 1984
Elevation:107 ft (33 m)
Variation:10.08°E (WMM2015 magnetic declination)
-0.00° annual change
Runways:2
Longest:5030 × 98 ft (1533 × 30 m), paved

Time
Time Zone:UTC+10
Local Time:

Weather
METAR:YBUD 171400Z AUTO 19006KT 9999 // SCT016 SCT043 19/18 Q1015

Related Locations
Nearby:
Farthest:NTO: 11876 mi / 19112 km
Ponta do Sol [Agostinho Neto], Ribeira Grande, Santo Antão, CV

Find:

   beyond  
but within

Other Information
Maps:
NOTAMs:
Links:
Sources:

  
  • flag of Australia
  • flag of Queensland
  

Sectional Chart

Flight Planning
at skyvector.com

Satellite Image

Google Maps Satellite view

 

Copyright © 2004-2018 Karl L. Swartz. All rights reserved.
The Great Circle Mapper name and logo are trademarks of the Great Circle Mapper.
All other trademarks mentioned herein belong to their respective owners.
Please see credits for attibutions and further copyright information.

  Follow gcmap on Facebook Follow gcmap on Twitter Follow gcmap on Google+ GCmap on LinkedIn

hCard Microformat

Geo Microformat